Satellite-Ground Cal/Val Site Overpasses Predictions

Prediction of Satellite NPP Overpassing Cal/Val Site: Antarctic Dome C

Ground Cal/Val Site Location: Latitude: -75.10, Longitude: 123.35; Satellite-Ground Site NADIR distance within 100 km.

Table of predicted overpasses for the next 14.0 days since TLE Epoch: 3/6/2021
Interval Starting Time Ending Time Minimum Distance Time Minimum Distance (km)
1 03/07/2021 15:07:11 03/07/2021 15:07:18 03/07/2021 15:07:15 95.81
2 03/08/2021 14:48:10 03/08/2021 14:48:39 03/08/2021 14:48:25 15.44
3 03/10/2021 07:30:59 03/10/2021 07:31:29 03/10/2021 07:31:14 0.55
4 03/13/2021 14:54:25 03/13/2021 14:54:54 03/13/2021 14:54:40 21.04
5 03/14/2021 14:35:43 03/14/2021 14:35:58 03/14/2021 14:35:51 86.12
6 03/15/2021 07:37:15 03/15/2021 07:37:42 03/15/2021 07:37:29 35.56
7 03/16/2021 07:18:29 03/16/2021 07:18:49 03/16/2021 07:18:39 74.64
8 03/18/2021 15:00:43 03/18/2021 15:01:07 03/18/2021 15:00:55 57.83
